[[{"header":{"parameterUnit":"m.s-1","parameterCategory":1,"la1":30.2991,"la2":30.254,"lo1":-89.0895,"lo2":-89.0444,"dy":0.0017,"dx":0.0017,"nx":28,"ny":28,"refTime":"2023-08-05T21:00:00:Z","depth":0,"parameterNumber":2,"parameterNumberName":"U-component_of_WINDS"},"data":[0,0,0,0,0,0,0,0,0,0,0,0,0,0,0,0,0,0,0,0,0,0,0,0,0,0,0,0,0,0,0,0,0,0,0,0,0,0,0,0,0,0,0,0,0,0,0,0,0,0,0,0,0,0,0,0,0,0,4.5621,4.5622,0,4.5794,4.5796,4.5798,4.5743,4.5739,4.5736,4.5732,4.5913,4.5921,4.5929,0,0,0,0,0,0,0,0,0,0,0,0,0,4.5242,4.5249,4.562,4.5623,4.5625,4.5794,4.5796,4.5799,4.5744,4.5739,4.5735,4.573,4.591,4.592,4.593,0,0,0,0,0,0,0,0,0,0,0,0,0,4.541,4.5251,4.562,4.5618,4.5619,4.5793,4.5796,4.5799,4.5745,4.5739,4.5734,4.5728,4.5907,4.5919,4.5931,4.6119,0,0,4.5969,4.5974,0,0,0,0,0,0,0,0,4.54,4.5424,4.5616,4.5618,4.562,4.5741,4.5729,4.5907,4.5746,4.5697,4.5732,4.5726,4.586,4.5876,4.5921,4.6127,4.6135,4.597,4.5977,4.5983,4.5986,0,0,0,0,0,0,0,4.5389,4.5416,4.5689,4.5619,4.5621,4.5608,4.5626,4.5762,4.5808,4.5701,4.5697,4.5719,4.586,4.5909,4.5925,4.6138,4.597,4.5981,4.5988,4.5993,4.6504,4.6509,0,0,0,0,0,0,4.5376,4.5407,4.5684,4.5694,4.5494,4.5619,4.5639,4.5708,4.5806,4.5816,4.5723,4.5715,4.5891,4.591,4.5931,4.6155,4.5983,4.5994,4.6001,4.6498,4.6505,4.6512,0,0,0,0,0,0,4.5368,4.5401,4.5677,4.555,4.5584,4.5632,4.571,4.5714,4.5763,4.5823,4.5831,4.5765,4.5887,4.5914,4.6072,4.6161,4.6,4.6011,4.649,4.65,4.6508,4.6606,0,0,0,0,0,0,4.5357,4.5398,4.547,4.5552,4.5591,4.5815,4.5715,4.5722,4.5784,4.5776,4.5864,4.5873,4.5885,4.6053,4.6084,4.6175,4.6021,4.6482,4.6494,4.6505,4.6595,4.6617,4.6637,0,0,0,0,0,4.5344,4.5492,4.5474,4.5508,4.5682,4.582,4.5842,4.5852,4.5792,4.5864,4.5902,4.587,4.6146,4.607,4.6104,4.62,4.6477,4.6491,4.6504,4.6586,4.6613,4.6636,0,0,0,0,0,0,4.5421,4.5503,4.5484,4.5663,4.5735,4.581,4.5902,4.5881,4.5972,4.596,4.5969,4.5989,4.6151,4.6192,4.6105,4.6385,4.6303,4.6324,4.6353,4.6379,4.64,4.6386,4.6031,0,0,0,0,0,4.5459,4.5564,4.563,4.5782,4.5818,4.5854,4.5915,4.5916,4.5991,4.6021,4.6071,4.6145,4.6248,4.6316,4.6415,4.6601,4.6618,4.6683,4.6704,4.6721,4.6739,4.6838,4.6867,4.6557,4.6557,4.6556,0,0,4.5539,4.5596,4.5662,4.5799,4.5854,4.5962,4.588,4.5999,4.6079,4.604,4.6191,4.623,4.6314,4.6486,4.6564,4.6524,4.6828,4.6738,4.6751,4.676,4.6855,4.6884,4.691,4.6566,4.6564,4.6563,0,0,4.5738,4.5793,4.5924,4.5981,4.6066,4.6088,4.6119,4.6198,4.6222,4.6374,4.6345,4.6441,4.6619,4.6679,4.6733,4.6953,4.6926,4.6985,4.7093,4.7189,4.7213,4.7235,4.7311,4.7339,4.7003,4.7003,4.7003,0,4.5827,4.5988,4.5994,4.6115,4.6175,4.6142,4.6274,4.633,4.6443,4.6485,4.6439,4.6659,4.6714,4.6898,4.6951,4.6997,4.7032,4.6974,4.7209,4.7231,4.7251,4.7324,4.7353,4.7009,4.7009,4.7008,4.7007,0,4.6091,4.6204,4.6299,4.6407,4.6478,4.6604,4.6629,4.67,4.6695,4.6722,4.6876,4.6939,4.7049,4.7093,4.709,4.7276,4.7249,4.7206,4.7123,4.7287,4.7355,4.7384,4.7019,4.7016,4.7014,4.7013,0,0,4.6346,4.6453,4.6488,4.6536,4.6626,4.6713,4.6837,4.6942,4.7002,4.7081,4.7184,4.7334,4.7294,4.7355,4.7358,4.7443,4.761,4.739,4.7392,4.7427,4.7817,4.7847,4.7879,4.7593,4.7599,4.7603,4.7809,0,4.6551,4.6767,4.6775,4.6973,4.7075,4.7045,4.7153,4.7219,4.7248,4.7339,4.7371,4.7476,4.7417,4.7453,4.7535,4.7572,4.7688,4.7558,4.7688,4.7693,4.7666,4.7916,4.7948,4.814,4.7836,4.7841,4.7844,0,4.682,4.6905,4.7112,4.7184,4.7228,4.7324,4.742,4.7508,4.7583,4.7597,4.7664,4.7654,4.778,4.7693,4.7866,4.7776,4.783,4.7856,4.7864,4.7875,4.7777,4.7932,4.8202,4.823,4.7887,4.7883,4.788,0,4.6982,4.7148,4.7293,4.7335,4.7424,4.7492,4.7532,4.7601,4.7663,4.7747,4.7787,4.7886,4.7939,4.8016,4.8032,4.7968,4.8204,4.8119,4.8219,4.8218,4.8269,4.8265,4.8549,4.8307,4.8307,4.8306,4.8305,0,4.721,4.7337,4.7366,4.7455,4.7596,4.7604,4.7744,4.7779,4.784,4.7935,4.7916,4.8005,4.8022,4.8115,4.8129,4.8268,4.8294,4.8308,4.831,4.8309,4.8307,4.8343,4.833,4.8314,4.8312,4.831,4.8309,0,4.7414,4.7439,4.7594,4.7665,4.7685,4.7786,4.7846,4.7931,4.7956,4.8076,4.8105,4.8145,4.8253,4.8277,4.8407,4.8416,4.858,4.857,4.8555,4.8553,4.865,4.864,4.8967,4.9009,4.8741,4.8743,4.8745,0,4.7557,4.7654,4.7734,4.7795,4.7838,4.7938,4.8,4.8012,4.8078,4.8168,4.8242,4.8347,4.8432,4.8606,4.8647,4.8745,4.8736,4.8843,4.8751,4.8745,4.8735,4.8728,4.8737,4.8861,4.8864,4.8866,4.8868,0,4.7807,4.7814,4.7904,4.7999,4.8073,4.8149,4.822,4.8272,4.8292,4.8367,4.8477,4.8542,4.8673,4.8777,4.8875,4.8916,4.8896,4.8897,4.8925,4.8924,4.891,4.8916,4.8601,4.8889,4.8887,4.8885,4.8884,4.8883,4.7984,4.8067,4.8136,4.8237,4.8291,4.8358,4.844,4.8474,4.8565,4.8671,4.8673,4.8791,4.8861,4.899,4.9037,4.913,4.9097,4.9138,4.9148,4.9157,4.9164,4.8896,4.9148,4.9148,4.9147,4.9147,4.9146,0,4.8231,4.8273,4.8365,4.8465,4.8544,4.8516,4.8593,4.8661,4.8765,4.8832,4.8915,4.9039,4.914,4.9188,4.9287,4.9352,4.9345,4.9378,4.9372,4.9381,4.919,4.9155,4.9381,4.9381,4.9381,4.9381,4.9381,4.9381,4.8369,4.8507,4.8522,4.8687,4.8728,4.8843,4.8889,4.895,4.9003,4.9142,4.9225,4.9255,4.9314,4.9417,4.9507,4.9519,4.9555,4.9592,4.9599,4.9419,4.9395,4.9372,4.9339,4.9601,4.9601,4.9782,4.9784,4.9785]},{"header":{"parameterUnit":"m.s-1","parameterCategory":1,"la1":30.2991,"la2":30.254,"lo1":-89.0895,"lo2":-89.0444,"dy":0.0017,"dx":0.0017,"nx":28,"ny":28,"refTime":"2023-08-05T21:00:00:Z","depth":0,"parameterNumber":3,"parameterNumberName":"V-component_of_WINDS"},"data":[0,0,0,0,0,0,0,0,0,0,0,0,0,0,0,0,0,0,0,0,0,0,0,0,0,0,0,0,0,0,0,0,0,0,0,0,0,0,0,0,0,0,0,0,0,0,0,0,0,0,0,0,0,0,0,0,0,0,2.4193,2.4193,0,2.4217,2.4217,2.4217,2.4139,2.4137,2.4134,2.4132,2.4159,2.4162,2.4165,0,0,0,0,0,0,0,0,0,0,0,0,0,2.4078,2.4081,2.4192,2.4193,2.4193,2.4217,2.4217,2.4218,2.4139,2.4136,2.4134,2.4131,2.4158,2.4161,2.4165,0,0,0,0,0,0,0,0,0,0,0,0,0,2.4118,2.4082,2.4192,2.4157,2.4154,2.4217,2.4217,2.4218,2.414,2.4136,2.4133,2.4129,2.4157,2.4161,2.4165,2.4264,0,0,2.4179,2.4181,0,0,0,0,0,0,0,0,2.4116,2.4122,2.4162,2.4159,2.4156,2.4171,2.4187,2.4233,2.4141,2.4145,2.4132,2.4128,2.4166,2.4169,2.4182,2.4265,2.4267,2.4179,2.4182,2.4184,2.4185,0,0,0,0,0,0,0,2.4113,2.4121,2.4202,2.4162,2.4159,2.414,2.4141,2.4195,2.4176,2.4145,2.4139,2.4143,2.4164,2.4178,2.4182,2.4267,2.4179,2.4183,2.4186,2.4187,2.4431,2.4434,0,0,0,0,0,0,2.4115,2.4119,2.4201,2.4203,2.4127,2.4145,2.4147,2.417,2.4175,2.4172,2.4146,2.4139,2.4172,2.4177,2.4183,2.4297,2.4184,2.4188,2.419,2.4427,2.4432,2.4436,0,0,0,0,0,0,2.4113,2.4123,2.42,2.4159,2.4168,2.415,2.4177,2.4172,2.4186,2.4176,2.4172,2.4164,2.4169,2.4176,2.4244,2.4297,2.419,2.4194,2.4423,2.4428,2.4434,2.4529,0,0,0,0,0,0,2.411,2.4123,2.416,2.4161,2.417,2.4262,2.4181,2.4175,2.4194,2.4185,2.4191,2.4189,2.4167,2.4238,2.4248,2.4301,2.4197,2.4418,2.4425,2.4432,2.4521,2.4537,2.4551,0,0,0,0,0,2.4106,2.4187,2.4163,2.4173,2.4217,2.4265,2.427,2.4243,2.4199,2.4236,2.4229,2.4189,2.429,2.4245,2.4257,2.4312,2.4414,2.4423,2.4431,2.4514,2.4534,2.4551,0,0,0,0,0,0,2.4194,2.4186,2.4159,2.4243,2.4255,2.4252,2.4298,2.4265,2.4291,2.4282,2.4247,2.4249,2.4323,2.4324,2.4275,2.4407,2.4344,2.4356,2.4403,2.4422,2.4437,2.4435,2.4201,0,0,0,0,0,2.4223,2.4263,2.4254,2.4328,2.4336,2.4316,2.4336,2.4314,2.4325,2.433,2.4328,2.4341,2.4375,2.4399,2.443,2.452,2.452,2.4564,2.4579,2.4591,2.4602,2.4648,2.4667,2.4464,2.4464,2.4464,0,0,2.4284,2.4285,2.4312,2.4346,2.4353,2.4394,2.4321,2.4369,2.4399,2.4338,2.4401,2.44,2.4412,2.4491,2.4526,2.4494,2.4658,2.4602,2.4612,2.4616,2.4659,2.4678,2.4696,2.447,2.4469,2.4468,0,0,2.4416,2.4421,2.4482,2.449,2.4501,2.4487,2.4502,2.4503,2.4499,2.4562,2.4516,2.4552,2.4612,2.4622,2.4635,2.4768,2.4732,2.478,2.4859,2.4905,2.4921,2.4935,2.4981,2.4999,2.479,2.479,2.479,0,2.4491,2.4551,2.4519,2.4569,2.4585,2.4529,2.4591,2.4601,2.4622,2.4634,2.4598,2.4671,2.4676,2.4756,2.4788,2.4801,2.4816,2.4779,2.4921,2.4935,2.4947,2.4991,2.5009,2.4796,2.4795,2.4794,2.4794,0,2.4641,2.4684,2.4733,2.4753,2.4774,2.483,2.4806,2.4831,2.4807,2.4796,2.486,2.4863,2.4893,2.491,2.4887,2.4987,2.4967,2.4927,2.4863,2.4973,2.5014,2.503,2.4804,2.4802,2.48,2.4799,0,0,2.4831,2.4831,2.4849,2.4857,2.4864,2.4896,2.4949,2.4977,2.4999,2.5015,2.5058,2.5109,2.5072,2.5086,2.5064,2.5104,2.5208,2.5058,2.5058,2.5086,2.5317,2.5347,2.5367,2.5184,2.5187,2.5189,2.5316,0,2.496,2.505,2.5022,2.5113,2.5151,2.5098,2.5144,2.5153,2.5144,2.5175,2.5166,2.5202,2.515,2.5158,2.5196,2.5188,2.5254,2.5178,2.5224,2.5226,2.5222,2.5389,2.5421,2.554,2.5332,2.5334,2.5336,0,2.5123,2.5144,2.5239,2.5237,2.5252,2.5294,2.5316,2.5347,2.5356,2.5346,2.5362,2.533,2.5382,2.5317,2.5387,2.5336,2.5353,2.5352,2.5355,2.5359,2.5288,2.5397,2.5578,2.5596,2.5361,2.5359,2.5358,0,2.5251,2.5303,2.5365,2.5374,2.5374,2.5404,2.5406,2.5411,2.5429,2.5449,2.546,2.5486,2.5501,2.5522,2.5498,2.5453,2.5571,2.5505,2.5564,2.5565,2.5592,2.5591,2.5778,2.5603,2.5603,2.5603,2.5602,0,2.5399,2.5458,2.5423,2.5462,2.5526,2.5493,2.5558,2.5554,2.5558,2.5595,2.5551,2.5586,2.5552,2.5584,2.5566,2.5626,2.5633,2.5627,2.5621,2.5631,2.5631,2.5641,2.5632,2.5607,2.5606,2.5605,2.5604,0,2.5553,2.5532,2.5596,2.559,2.559,2.5638,2.5633,2.5668,2.5656,2.5703,2.5712,2.5692,2.5727,2.5705,2.5742,2.5729,2.5807,2.579,2.5804,2.5799,2.586,2.5854,2.6061,2.6086,2.5895,2.5897,2.5898,0,2.5648,2.5693,2.5691,2.5712,2.5716,2.575,2.5768,2.5736,2.5757,2.5769,2.5803,2.5834,2.5857,2.5916,2.5905,2.5932,2.5915,2.5986,2.5919,2.5927,2.5916,2.5913,2.5917,2.5999,2.6002,2.6004,2.6005,0,2.582,2.5806,2.5833,2.5857,2.5879,2.5896,2.5909,2.5929,2.5897,2.5922,2.5957,2.5975,2.6011,2.6042,2.6064,2.6066,2.603,2.6026,2.6041,2.6051,2.6057,2.6054,2.584,2.6021,2.602,2.6019,2.6018,2.6017,2.5947,2.5983,2.5987,2.6018,2.6025,2.6038,2.607,2.6061,2.6089,2.6115,2.6095,2.6136,2.6142,2.6168,2.6174,2.6206,2.6177,2.6199,2.6205,2.6211,2.6219,2.6052,2.621,2.6209,2.6209,2.6208,2.6208,0,2.6115,2.6114,2.6143,2.6163,2.6187,2.615,2.6163,2.6186,2.6222,2.6231,2.6254,2.6293,2.6323,2.6314,2.634,2.6368,2.6352,2.6376,2.6373,2.6374,2.6243,2.6227,2.6388,2.6388,2.6388,2.6388,2.6388,2.6388,2.6205,2.6265,2.6252,2.6313,2.6312,2.6351,2.6362,2.6373,2.6379,2.6425,2.6449,2.6443,2.6444,2.6469,2.6495,2.6491,2.6503,2.6533,2.6523,2.6401,2.6383,2.6367,2.6351,2.6536,2.6536,2.6651,2.6652,2.6653]}]]